[[{"header":{"parameterUnit":"m.s-1","parameterCategory":1,"la1":30.2991,"la2":30.254,"lo1":-89.0895,"lo2":-89.0444,"dy":0.0017,"dx":0.0017,"nx":28,"ny":28,"refTime":"2025-08-30T21:00:00:Z","depth":0,"parameterNumber":2,"parameterNumberName":"U-component_of_WINDS"},"data":[0,0,0,0,0,0,0,0,0,0,0,0,0,0,0,0,0,0,0,0,0,0,0,0,0,0,0,0,0,0,0,0,0,0,0,0,0,0,0,0,0,0,0,0,0,0,0,0,0,0,0,0,0,0,0,0,0,0,-2.8948,-2.8948,0,-2.897,-2.897,-2.8971,-2.8873,-2.887,-2.8867,-2.8864,-2.8894,-2.8897,-2.8901,0,0,0,0,0,0,0,0,0,0,0,0,0,-2.8829,-2.8831,-2.8948,-2.8948,-2.8948,-2.897,-2.897,-2.8971,-2.8873,-2.887,-2.8866,-2.8863,-2.8893,-2.8897,-2.8901,0,0,0,0,0,0,0,0,0,0,0,0,0,-2.8869,-2.8832,-2.8948,-2.8902,-2.8898,-2.897,-2.897,-2.8971,-2.8874,-2.887,-2.8865,-2.8861,-2.8891,-2.8896,-2.8901,-2.902,0,0,-2.8917,-2.892,0,0,0,0,0,0,0,0,-2.8867,-2.8873,-2.8909,-2.8906,-2.8901,-2.8914,-2.8939,-2.8987,-2.8875,-2.8884,-2.8864,-2.8859,-2.8904,-2.8908,-2.8922,-2.9021,-2.9022,-2.8918,-2.8921,-2.8923,-2.8925,0,0,0,0,0,0,0,-2.8864,-2.8872,-2.8957,-2.8909,-2.8905,-2.8883,-2.8884,-2.8948,-2.8918,-2.8882,-2.8875,-2.8879,-2.8902,-2.8917,-2.8922,-2.9023,-2.8918,-2.8922,-2.8925,-2.8927,-2.9223,-2.9227,0,0,0,0,0,0,-2.8866,-2.887,-2.8956,-2.8957,-2.8873,-2.8889,-2.889,-2.8914,-2.8917,-2.8913,-2.8883,-2.8874,-2.8911,-2.8916,-2.8923,-2.9063,-2.8923,-2.8928,-2.8931,-2.9218,-2.9224,-2.9229,0,0,0,0,0,0,-2.8864,-2.8875,-2.8955,-2.8912,-2.892,-2.8895,-2.8924,-2.8917,-2.8933,-2.8917,-2.8912,-2.8904,-2.8907,-2.8915,-2.8996,-2.9063,-2.893,-2.8935,-2.9213,-2.922,-2.9227,-2.9344,0,0,0,0,0,0,-2.8861,-2.8875,-2.8918,-2.8913,-2.8923,-2.9027,-2.8928,-2.8921,-2.8941,-2.893,-2.8935,-2.8932,-2.8905,-2.8989,-2.9002,-2.9067,-2.8939,-2.9207,-2.9216,-2.9224,-2.9334,-2.9354,-2.9371,0,0,0,0,0,-2.8857,-2.8951,-2.892,-2.8931,-2.8976,-2.9031,-2.9036,-2.9001,-2.8947,-2.8991,-2.8981,-2.8932,-2.9053,-2.8998,-2.9012,-2.908,-2.9202,-2.9213,-2.9224,-2.9326,-2.935,-2.9371,0,0,0,0,0,0,-2.8965,-2.8949,-2.8915,-2.901,-2.9022,-2.9014,-2.9068,-2.9027,-2.9057,-2.9046,-2.9002,-2.9005,-2.9094,-2.9095,-2.9034,-2.9196,-2.9119,-2.9133,-2.9192,-2.9215,-2.9233,-2.9232,-2.8943,0,0,0,0,0,-2.8999,-2.9043,-2.9028,-2.9113,-2.912,-2.9094,-2.9116,-2.9088,-2.91,-2.9105,-2.9101,-2.9117,-2.9158,-2.9186,-2.9224,-2.9334,-2.9335,-2.9387,-2.9406,-2.9421,-2.9434,-2.9495,-2.9519,-2.9264,-2.9264,-2.9264,0,0,-2.9072,-2.9069,-2.9099,-2.9134,-2.914,-2.9189,-2.9099,-2.9153,-2.919,-2.9114,-2.919,-2.9188,-2.9203,-2.9299,-2.9341,-2.9303,-2.9505,-2.9435,-2.9447,-2.9452,-2.9508,-2.9532,-2.9554,-2.9271,-2.927,-2.9269,0,0,-2.9228,-2.9229,-2.9301,-2.9309,-2.9319,-2.93,-2.9318,-2.9316,-2.9312,-2.9387,-2.9331,-2.9375,-2.9447,-2.946,-2.9477,-2.964,-2.9597,-2.9654,-2.9752,-2.9811,-2.9831,-2.9849,-2.9909,-2.9931,-2.9666,-2.9667,-2.9667,0,-2.9317,-2.9386,-2.9343,-2.9402,-2.9421,-2.9352,-2.9426,-2.9437,-2.946,-2.9475,-2.9431,-2.9521,-2.9525,-2.9625,-2.9665,-2.968,-2.9701,-2.9653,-2.9831,-2.9849,-2.9865,-2.9922,-2.9944,-2.9674,-2.9673,-2.9672,-2.9672,0,-2.9496,-2.9545,-2.9602,-2.9624,-2.9648,-2.9715,-2.9685,-2.9716,-2.9686,-2.9673,-2.9752,-2.9756,-2.9794,-2.9815,-2.9787,-2.9912,-2.9888,-2.9838,-2.976,-2.9896,-2.995,-2.9971,-2.9684,-2.9681,-2.9679,-2.9677,0,0,-2.9721,-2.9718,-2.974,-2.975,-2.9757,-2.9795,-2.986,-2.9894,-2.9923,-2.9941,-2.9996,-3.0059,-3.0014,-3.0033,-3.0005,-3.0058,-3.019,-3.0002,-3.0002,-3.0038,-3.033,-3.0369,-3.0394,-3.0161,-3.0164,-3.0168,-3.033,0,-2.9875,-2.9982,-2.9947,-3.0057,-3.0103,-3.004,-3.0096,-3.0108,-3.0099,-3.0139,-3.0129,-3.0175,-3.0111,-3.0122,-3.017,-3.0163,-3.0248,-3.0151,-3.0214,-3.0217,-3.0213,-3.0422,-3.0462,-3.0614,-3.035,-3.0353,-3.0356,0,-3.0069,-3.0094,-3.0208,-3.0209,-3.0227,-3.0278,-3.0308,-3.0346,-3.0359,-3.0349,-3.0371,-3.0333,-3.0399,-3.0321,-3.0413,-3.0348,-3.0372,-3.0372,-3.0377,-3.0383,-3.0295,-3.0435,-3.0662,-3.0686,-3.0388,-3.0385,-3.0383,0,-3.0223,-3.0286,-3.0362,-3.0373,-3.0375,-3.0413,-3.0416,-3.0424,-3.0449,-3.0476,-3.0492,-3.0527,-3.0548,-3.0577,-3.0552,-3.0496,-3.0649,-3.0568,-3.0645,-3.0646,-3.0681,-3.0679,-3.0917,-3.0694,-3.0694,-3.0694,-3.0693,0,-3.04,-3.0473,-3.0432,-3.0479,-3.056,-3.052,-3.0602,-3.0599,-3.0608,-3.0655,-3.0603,-3.065,-3.0612,-3.0657,-3.0637,-3.0718,-3.0727,-3.0723,-3.0717,-3.0729,-3.0729,-3.0744,-3.0734,-3.07,-3.0698,-3.0697,-3.0696,0,-3.0586,-3.0561,-3.0641,-3.0636,-3.0637,-3.0697,-3.0694,-3.074,-3.0727,-3.0788,-3.0801,-3.0781,-3.0831,-3.0808,-3.086,-3.0847,-3.0952,-3.0931,-3.0947,-3.0942,-3.1022,-3.1015,-3.1279,-3.1312,-3.1067,-3.1069,-3.1071,0,-3.0701,-3.0755,-3.0756,-3.0784,-3.079,-3.0835,-3.0859,-3.0823,-3.085,-3.0871,-3.0915,-3.0959,-3.0993,-3.1076,-3.1068,-3.1109,-3.109,-3.1179,-3.1096,-3.1106,-3.1094,-3.1091,-3.1098,-3.1197,-3.12,-3.1202,-3.1204,0,-3.0908,-3.0893,-3.0928,-3.0961,-3.099,-3.1014,-3.1034,-3.106,-3.1025,-3.106,-3.1109,-3.1135,-3.1188,-3.1234,-3.127,-3.1276,-3.1236,-3.123,-3.125,-3.1263,-3.1271,-3.1269,-3.0995,-3.1224,-3.1222,-3.1221,-3.122,-3.1219,-3.1062,-3.1109,-3.1117,-3.1159,-3.117,-3.119,-3.1233,-3.1226,-3.1265,-3.1304,-3.1281,-3.134,-3.1354,-3.1398,-3.141,-3.1457,-3.1422,-3.1451,-3.1459,-3.1467,-3.1478,-3.1262,-3.1463,-3.1463,-3.1462,-3.1462,-3.1461,0,-3.1268,-3.127,-3.1309,-3.1338,-3.1373,-3.1329,-3.1349,-3.1382,-3.1433,-3.1449,-3.1483,-3.1541,-3.1586,-3.1583,-3.1625,-3.1663,-3.1646,-3.1676,-3.1674,-3.1676,-3.1506,-3.1485,-3.1689,-3.1689,-3.1689,-3.1689,-3.1689,-3.1689,-3.1379,-3.1455,-3.1442,-3.1525,-3.1528,-3.1583,-3.1599,-3.1618,-3.1631,-3.1697,-3.1734,-3.173,-3.174,-3.1782,-3.1823,-3.1821,-3.184,-3.1877,-3.1869,-3.171,-3.1688,-3.1666,-3.1646,-3.1881,-3.1881,-3.2035,-3.2036,-3.2037]},{"header":{"parameterUnit":"m.s-1","parameterCategory":1,"la1":30.2991,"la2":30.254,"lo1":-89.0895,"lo2":-89.0444,"dy":0.0017,"dx":0.0017,"nx":28,"ny":28,"refTime":"2025-08-30T21:00:00:Z","depth":0,"parameterNumber":3,"parameterNumberName":"V-component_of_WINDS"},"data":[0,0,0,0,0,0,0,0,0,0,0,0,0,0,0,0,0,0,0,0,0,0,0,0,0,0,0,0,0,0,0,0,0,0,0,0,0,0,0,0,0,0,0,0,0,0,0,0,0,0,0,0,0,0,0,0,0,0,0.3342,0.3343,0,0.3368,0.3369,0.3369,0.3414,0.3415,0.3416,0.3417,0.3441,0.3441,0.3441,0,0,0,0,0,0,0,0,0,0,0,0,0,0.3329,0.3329,0.3342,0.3343,0.3343,0.3368,0.3369,0.3369,0.3414,0.3415,0.3416,0.3417,0.3441,0.3441,0.3441,0,0,0,0,0,0,0,0,0,0,0,0,0,0.3343,0.3329,0.3342,0.3369,0.3371,0.3368,0.3369,0.3369,0.3414,0.3415,0.3416,0.3418,0.3441,0.3441,0.344,0.3413,0,0,0.344,0.344,0,0,0,0,0,0,0,0,0.3342,0.3343,0.3364,0.3367,0.337,0.3389,0.3373,0.3384,0.3414,0.3398,0.3417,0.3418,0.3423,0.3424,0.3426,0.3414,0.3415,0.344,0.344,0.344,0.3439,0,0,0,0,0,0,0,0.3341,0.3342,0.3353,0.3365,0.3368,0.3378,0.3382,0.3375,0.3402,0.3399,0.3402,0.3405,0.3424,0.3426,0.3427,0.3416,0.344,0.344,0.3439,0.3439,0.3381,0.338,0,0,0,0,0,0,0.3336,0.3341,0.3352,0.3353,0.3359,0.3377,0.3381,0.3382,0.3403,0.3407,0.3404,0.3407,0.3426,0.3427,0.3428,0.3396,0.344,0.3439,0.3439,0.3383,0.3381,0.3379,0,0,0,0,0,0,0.3336,0.3337,0.3351,0.3348,0.3351,0.3376,0.3377,0.3382,0.3383,0.3406,0.3411,0.3401,0.3427,0.3428,0.3416,0.3397,0.3439,0.3439,0.3384,0.3382,0.338,0.3332,0,0,0,0,0,0,0.3335,0.3337,0.3327,0.3348,0.3351,0.3339,0.3375,0.3381,0.3383,0.3388,0.3405,0.3409,0.3428,0.3416,0.3416,0.3397,0.3439,0.3386,0.3383,0.3381,0.3335,0.3328,0.3322,0,0,0,0,0,0.3335,0.3312,0.3326,0.3327,0.334,0.3338,0.334,0.3363,0.3382,0.3372,0.3386,0.3408,0.34,0.3415,0.3415,0.3396,0.3387,0.3384,0.3381,0.3338,0.333,0.3323,0,0,0,0,0,0,0.3288,0.3316,0.3331,0.3315,0.3324,0.3346,0.3334,0.3354,0.3357,0.3361,0.3389,0.3392,0.3376,0.3385,0.3402,0.337,0.3397,0.3393,0.3364,0.3356,0.335,0.3347,0.3439,0,0,0,0,0,0.3276,0.3274,0.3298,0.3281,0.3285,0.3308,0.3309,0.3326,0.3336,0.334,0.3354,0.3362,0.3361,0.3359,0.336,0.3337,0.334,0.3324,0.3318,0.3312,0.3309,0.3295,0.3288,0.3369,0.3369,0.3369,0,0,0.3251,0.3266,0.3262,0.3272,0.3281,0.3276,0.3311,0.3306,0.3302,0.3339,0.3328,0.3338,0.3349,0.3331,0.3324,0.3338,0.3287,0.3308,0.3304,0.3303,0.3291,0.3283,0.3276,0.3367,0.3367,0.3368,0,0,0.3202,0.3214,0.3201,0.3209,0.3222,0.3238,0.3235,0.3254,0.3262,0.3252,0.3279,0.3275,0.3273,0.3279,0.3282,0.3235,0.3254,0.3234,0.32,0.3187,0.318,0.3175,0.3156,0.3149,0.3231,0.3231,0.3231,0,0.3169,0.3164,0.3191,0.3183,0.3185,0.3219,0.3205,0.3212,0.3224,0.3224,0.324,0.3238,0.3248,0.3231,0.3219,0.3221,0.3217,0.3232,0.3179,0.3174,0.3169,0.3151,0.3144,0.3228,0.3228,0.3229,0.3229,0,0.3121,0.3118,0.3105,0.3116,0.3118,0.3107,0.313,0.3129,0.3146,0.3159,0.3148,0.3161,0.3164,0.3161,0.3178,0.3146,0.3154,0.3175,0.3202,0.3158,0.3142,0.3135,0.3224,0.3225,0.3226,0.3227,0,0,0.3043,0.3069,0.3064,0.3069,0.3086,0.3083,0.3073,0.3076,0.3073,0.3081,0.3071,0.3069,0.3087,0.309,0.3108,0.3097,0.3056,0.3118,0.3119,0.3104,0.3019,0.3002,0.2994,0.307,0.3069,0.3068,0.3017,0,0.2996,0.2981,0.3005,0.2983,0.2979,0.3011,0.3002,0.301,0.3023,0.302,0.3035,0.3031,0.3057,0.3059,0.3049,0.3063,0.3039,0.3067,0.3059,0.3059,0.3054,0.2986,0.2968,0.292,0.3011,0.301,0.301,0,0.294,0.2944,0.2922,0.294,0.2939,0.293,0.2934,0.2932,0.2942,0.2952,0.2955,0.2976,0.2966,0.2994,0.2979,0.2998,0.2996,0.3003,0.3001,0.3,0.303,0.298,0.2905,0.2897,0.3,0.3001,0.3002,0,0.2882,0.2883,0.287,0.2873,0.2893,0.2886,0.2894,0.2906,0.2906,0.2909,0.2909,0.2912,0.2912,0.2913,0.2933,0.2952,0.2915,0.2945,0.2921,0.292,0.291,0.291,0.2832,0.2913,0.2913,0.2913,0.2913,0,0.2826,0.2811,0.2844,0.2835,0.2819,0.2846,0.2828,0.2839,0.2849,0.2842,0.2871,0.2863,0.2892,0.2887,0.2903,0.2887,0.2888,0.2894,0.2898,0.2891,0.2889,0.2888,0.2891,0.2911,0.2912,0.2912,0.2912,0,0.2758,0.278,0.2767,0.2787,0.2792,0.2778,0.2795,0.2787,0.2802,0.2793,0.2792,0.2815,0.2811,0.2832,0.2832,0.2842,0.2817,0.2828,0.2814,0.2816,0.279,0.2791,0.2707,0.2696,0.2786,0.2785,0.2784,0,0.272,0.2709,0.2728,0.2726,0.2732,0.2728,0.2728,0.2755,0.2753,0.2763,0.2754,0.2752,0.2752,0.2744,0.276,0.2759,0.2769,0.2739,0.2769,0.2761,0.2766,0.2765,0.2763,0.2732,0.2731,0.273,0.273,0,0.2649,0.266,0.266,0.2663,0.2662,0.2666,0.2671,0.2667,0.2695,0.2692,0.2689,0.2689,0.2688,0.2686,0.2688,0.2695,0.2716,0.272,0.2714,0.2705,0.2696,0.2698,0.2795,0.2722,0.2722,0.2723,0.2723,0.2724,0.2593,0.2584,0.2596,0.2594,0.2601,0.2605,0.2598,0.2612,0.261,0.2611,0.2627,0.262,0.2629,0.2635,0.264,0.2634,0.2648,0.264,0.2637,0.2634,0.2628,0.2699,0.2635,0.2635,0.2635,0.2635,0.2636,0,0.2522,0.2531,0.2529,0.2535,0.2533,0.2555,0.2561,0.2558,0.2552,0.2559,0.2558,0.2553,0.2551,0.2566,0.2565,0.2557,0.2566,0.2556,0.2555,0.2556,0.2617,0.2621,0.2548,0.2548,0.2548,0.2548,0.2548,0.2548,0.2484,0.247,0.2482,0.247,0.2479,0.2473,0.2475,0.2478,0.2484,0.2477,0.2475,0.2485,0.2495,0.2495,0.2493,0.2498,0.2495,0.248,0.2488,0.2544,0.2552,0.256,0.2564,0.248,0.248,0.2427,0.2427,0.2426]}]]